DAH5360 DAAG-FAOR

Flight info

Callsign DAH5360
Flight time N/A
Altitude 37000
Route BSA1F BSA UJ36 TGU UM508 BOD UM998 NEBRA/N0462F390 UM998 INISA UT237 FL UM731 KIVDO UA406 AKMEX UM214 OKLAP/N0452F400 UM214 ETMIT/N0446F390 UT433 UTIGU/N0367F240 Z7 OKPIT OKPIT1D
Aircraft A333/H-SDE3GHIJ2J3J5M1RVWXY/LB2D1

Departure

Time 2026-05-05 16:43
Airport Houari Boumediene Airport (DAAG)

Arrival

Time N/A
Airport O.R. Tambo International Airport (FAOR)
Time Latitude Longitude Altitude Speed Heading
2026-05-05 16:18 36.69551 3.20241 73 ft 0 kts
2026-05-05 16:34 36.69539 3.20241 66 ft 4 kts 359°
2026-05-05 16:34 36.69512 3.20241 67 ft 4 kts
2026-05-05 16:35 36.69485 3.20238 65 ft 4 kts
2026-05-05 16:35 36.69460 3.20238 65 ft 4 kts 335°
2026-05-05 16:35 36.69446 3.20259 63 ft 4 kts 300°
2026-05-05 16:35 36.69429 3.20283 63 ft 4 kts 333°
2026-05-05 16:36 36.69404 3.20292 63 ft 4 kts 359°
2026-05-05 16:36 36.69379 3.20291 66 ft 2 kts
2026-05-05 16:36 36.69378 3.20291 64 ft 0 kts 360°
2026-05-05 16:38 36.69388 3.20291 65 ft 3 kts
2026-05-05 16:38 36.69417 3.20301 73 ft 5 kts 24°
2026-05-05 16:38 36.69442 3.20342 68 ft 6 kts 73°
2026-05-05 16:39 36.69445 3.20405 67 ft 8 kts 90°
2026-05-05 16:39 36.69445 3.20490 67 ft 11 kts 89°
2026-05-05 16:39 36.69444 3.20600 72 ft 12 kts 94°
2026-05-05 16:39 36.69440 3.20682 67 ft 8 kts 92°
2026-05-05 16:40 36.69437 3.20757 66 ft 10 kts 92°
2026-05-05 16:40 36.69420 3.20847 65 ft 11 kts 123°
2026-05-05 16:40 36.69354 3.20891 69 ft 12 kts 163°
2026-05-05 16:40 36.69271 3.20926 66 ft 14 kts 160°
2026-05-05 16:41 36.69182 3.20966 71 ft 12 kts 162°
2026-05-05 16:41 36.69118 3.20956 85 ft 8 kts 228°
2026-05-05 16:41 36.69114 3.20920 83 ft 1 kts 272°
2026-05-05 16:41 36.69116 3.20862 81 ft 27 kts 272°
2026-05-05 16:42 36.69127 3.20371 80 ft 85 kts 271°
2026-05-05 16:42 36.69150 3.19411 71 ft 135 kts 271°
2026-05-05 16:42 36.69181 3.18063 90 ft 175 kts 272°
2026-05-05 16:42 36.69187 3.16520 632 ft 178 kts 271°
2026-05-05 16:43 36.69157 3.14968 1242 ft 181 kts 268°
2026-05-05 16:43 36.69118 3.13402 1745 ft 180 kts 270°
2026-05-05 16:43 36.69107 3.11848 2195 ft 179 kts 272°
2026-05-05 16:43 36.69032 3.10282 2511 ft 188 kts 259°
2026-05-05 16:44 36.68408 3.08788 2665 ft 207 kts 223°
2026-05-05 16:44 36.67052 3.08100 2800 ft 224 kts 180°
2026-05-05 16:44 36.65550 3.08708 3003 ft 237 kts 147°
2026-05-05 16:44 36.64182 3.09974 3281 ft 252 kts 142°
2026-05-05 16:45 36.62784 3.11330 3811 ft 257 kts 143°
2026-05-05 16:45 36.61347 3.12673 4487 ft 259 kts 144°
2026-05-05 16:45 36.59886 3.13991 5163 ft 260 kts 146°
2026-05-05 16:45 36.58401 3.15300 5803 ft 264 kts 147°
2026-05-05 16:46 36.56889 3.16616 6446 ft 267 kts 148°
2026-05-05 16:46 36.55353 3.17944 7043 ft 271 kts 149°
2026-05-05 16:46 36.53787 3.19292 7651 ft 276 kts 149°
2026-05-05 16:46 36.52199 3.20647 8163 ft 278 kts 150°
2026-05-05 16:47 36.50594 3.22027 8801 ft 282 kts 151°
2026-05-05 16:47 36.48967 3.23425 9443 ft 286 kts 152°
2026-05-05 16:47 36.47319 3.24838 10056 ft 290 kts 152°
2026-05-05 16:47 36.45614 3.26292 10342 ft 305 kts 152°
2026-05-05 16:48 36.43819 3.27822 10590 ft 320 kts 151°
2026-05-05 16:48 36.41939 3.29427 10798 ft 336 kts 151°
2026-05-05 16:48 36.39980 3.31104 11033 ft 347 kts 150°
2026-05-05 16:48 36.37974 3.32824 11468 ft 353 kts 151°
2026-05-05 16:49 36.35939 3.34563 11976 ft 358 kts 151°
2026-05-05 16:49 36.33875 3.36325 12509 ft 362 kts 151°
2026-05-05 16:49 36.31825 3.38075 13098 ft 365 kts 152°
2026-05-05 16:49 36.29723 3.39867 13663 ft 368 kts 152°
2026-05-05 16:50 36.27577 3.41694 14174 ft 371 kts 152°
2026-05-05 16:50 36.25470 3.43486 14646 ft 374 kts 152°
2026-05-05 16:50 36.23336 3.45302 15288 ft 371 kts 152°
2026-05-05 16:50 36.21195 3.47121 15710 ft 376 kts 152°
2026-05-05 16:51 36.19020 3.48965 16098 ft 381 kts 152°
2026-05-05 16:51 36.16818 3.50829 16557 ft 384 kts 151°
2026-05-05 16:51 36.14605 3.52708 17001 ft 387 kts 151°
2026-05-05 16:51 36.12373 3.54600 17472 ft 390 kts 151°
2026-05-05 16:52 36.10123 3.56504 17929 ft 393 kts 151°
2026-05-05 16:52 36.07861 3.58418 18356 ft 396 kts 151°
2026-05-05 16:52 36.05584 3.60344 18737 ft 399 kts 151°
2026-05-05 16:52 36.03287 3.62285 19132 ft 401 kts 151°
2026-05-05 16:53 36.00980 3.64233 19530 ft 404 kts 151°
2026-05-05 16:53 35.98646 3.66203 19912 ft 406 kts 151°
2026-05-05 16:53 35.96306 3.68175 20301 ft 409 kts 151°
2026-05-05 16:53 35.93948 3.70161 20662 ft 412 kts 151°
2026-05-05 16:54 35.91578 3.72156 21026 ft 414 kts 151°
2026-05-05 16:54 35.89188 3.74166 21371 ft 416 kts 151°
2026-05-05 16:54 35.86791 3.76181 21739 ft 419 kts 151°
2026-05-05 16:54 35.84376 3.78209 22110 ft 421 kts 151°
2026-05-05 16:55 35.81948 3.80248 22460 ft 424 kts 151°
2026-05-05 16:55 35.79512 3.82291 22822 ft 425 kts 150°
2026-05-05 16:55 35.77059 3.84347 23199 ft 427 kts 150°
2026-05-05 16:55 35.74596 3.86410 23523 ft 429 kts 150°
2026-05-05 16:56 35.72121 3.88480 23809 ft 432 kts 150°
2026-05-05 16:56 35.69632 3.90561 24084 ft 434 kts 150°
2026-05-05 16:56 35.67131 3.92650 24304 ft 437 kts 150°
2026-05-05 16:56 35.64605 3.94758 24534 ft 440 kts 150°
2026-05-05 16:57 35.62074 3.96869 24830 ft 441 kts 150°
2026-05-05 16:57 35.59526 3.98994 25122 ft 443 kts 150°
2026-05-05 16:57 35.57836 4.00401 25311 ft 444 kts 150°
2026-05-05 16:57 35.55278 4.02531 25594 ft 445 kts 150°
2026-05-05 16:58 35.52709 4.04667 25869 ft 447 kts 150°
2026-05-05 16:58 35.50130 4.06811 26145 ft 449 kts 150°
2026-05-05 16:58 35.46695 4.09662 26511 ft 451 kts 150°
2026-05-05 16:58 35.44092 4.11822 26783 ft 453 kts 150°
2026-05-05 16:59 35.42326 4.13286 26938 ft 454 kts 150°
2026-05-05 16:59 35.39704 4.15458 27184 ft 456 kts 150°
2026-05-05 16:59 35.37074 4.17635 27417 ft 458 kts 150°
2026-05-05 16:59 35.34421 4.19830 27662 ft 460 kts 150°
2026-05-05 17:00 35.31770 4.22022 27870 ft 461 kts 150°
2026-05-05 17:00 35.29118 4.24218 28220 ft 460 kts 150°
2026-05-05 17:00 35.26477 4.26407 28698 ft 456 kts 150°
2026-05-05 17:00 35.23889 4.28559 29420 ft 446 kts 150°
2026-05-05 17:01 35.21375 4.30660 30280 ft 431 kts 150°
2026-05-05 17:01 35.18927 4.32715 30897 ft 422 kts 150°
2026-05-05 17:01 35.16497 4.34746 31016 ft 426 kts 151°
2026-05-05 17:01 35.14036 4.36769 30723 ft 440 kts 151°
2026-05-05 17:02 35.11419 4.38871 30311 ft 458 kts 152°
2026-05-05 17:02 35.08710 4.40995 30153 ft 468 kts 152°
2026-05-05 17:02 35.03138 4.45202 30488 ft 471 kts 153°
2026-05-05 17:03 35.00349 4.47239 30899 ft 465 kts 154°
2026-05-05 17:03 34.97583 4.49224 31552 ft 454 kts 155°
2026-05-05 17:03 34.94888 4.51124 32265 ft 442 kts 155°
2026-05-05 17:03 34.92231 4.52960 32689 ft 438 kts 156°
2026-05-05 17:04 34.86787 4.56566 32247 ft 458 kts 158°
2026-05-05 17:04 34.83911 4.58373 31888 ft 471 kts 159°
2026-05-05 17:04 34.80948 4.60169 31789 ft 478 kts 159°
2026-05-05 17:05 34.74913 4.63640 32101 ft 480 kts 161°
2026-05-05 17:05 34.71872 4.65290 32439 ft 476 kts 162°
2026-05-05 17:05 34.68856 4.66870 32972 ft 468 kts 162°
2026-05-05 17:06 34.65888 4.68363 33615 ft 457 kts 164°
2026-05-05 17:06 34.62952 4.69767 34015 ft 451 kts 165°
2026-05-05 17:06 34.56995 4.72393 33771 ft 464 kts 167°
2026-05-05 17:07 34.53885 4.73622 33402 ft 475 kts 168°
2026-05-05 17:07 34.50694 4.74794 33279 ft 481 kts 169°
2026-05-05 17:07 34.44285 4.76971 33527 ft 483 kts 171°
2026-05-05 17:08 34.41393 4.77897 33804 ft 480 kts 171°
2026-05-05 17:08 34.38307 4.78851 34183 ft 474 kts 172°
2026-05-05 17:08 34.35132 4.79788 34631 ft 465 kts 174°
2026-05-05 17:08 34.31997 4.80666 34956 ft 461 kts 174°
2026-05-05 17:09 34.25687 4.82290 34801 ft 470 kts 176°
2026-05-05 17:09 34.24305 4.82615 34689 ft 475 kts 176°
2026-05-05 17:09 34.23619 4.82774 34635 ft 476 kts 176°
2026-05-05 17:10 34.20334 4.83506 34472 ft 483 kts 176°